« Back
NWS Peachtree City, Ga » Text Product » GA Regional Weather Roundup


Printer-friendly Version
Current Version              Previous Versions:   1  2  3  4  5  6  7  8  9  

Regional Weather Roundup

939
ASUS42 KFFC 011903
RWRGA
WEATHER ROUNDUP FOR GEORGIA
NATIONAL WEATHER SERVICE PEACHTREE CITY GA
300 PM EDT FRI JUL 01 2016

NOTE: "FAIR" INDICATES FEW OR NO CLOUDS BELOW 12,000 FEET WITH NO
SIGNIFICANT WEATHER AND/OR OBSTRUCTIONS TO VISIBILITY.

* = USE WITH CAUTION. THE STATIONS MARKED WITH AN ASTERISK MAY NOT
REPORT WEATHER SUCH AS PRECIPITATION, FOG, OR THUNDER AND ARE NOT
QUALITY CONTROLLED BY NWS.

THE REMARK "TC" DENOTES TEMPERATURE READING IN DEGREES CELSIUS.

GAZ001>058-012000-
NORTH GEORGIA

CITY           SKY/WX    TMP DP  RH WIND       PRES   REMARKS
ATLANTA        MOSUNNY   93  53  25 N15       30.01F HX  90
ATHENS         MOSUNNY   90  70  51 VRB5      29.99F HX  95
CHAMBLEE       SUNNY     93  48  21 SW7       30.00F
PEACHTREE CITY SUNNY     91  60  35 MISG      30.00F HX  90
ROME           SUNNY     92  54  27 W5        29.98F HX  90
WEST ATLANTA   SUNNY     92  51  24 N12       30.00F
GAINESVILLE    SUNNY     89  59  36 VRB7      30.03F
CARTERSVILLE   SUNNY     92  59  33 VRB6      30.00F HX  91


CITY           SKY/WX    TMP DP  RH WIND       PRES   REMARKS
DALTON*        SUNNY     88  59  37 W8        30.00F
LAWRENCEVILLE* SUNNY     90  55  31 W6        30.02F
KENNESAW*      SUNNY     91  54  27 NW6       29.95F
CANTON*        SUNNY     91  37  15 CALM      30.02F
$$

GAZ059>098-102>109-012000-
CENTRAL GEORGIA

CITY           SKY/WX    TMP DP  RH WIND       PRES   REMARKS
AUGUSTA-BUSH   PTSUNNY   88  70  55 S5        29.96F HX  93
AUGUSTA-DANIEL MOSUNNY   90  69  50 SW3       29.98F HX  94
COLUMBUS       MOSUNNY   90  65  43 W8        29.98F HX  92
MACON          MOSUNNY   91  66  43 W6        29.98F HX  93
ROBINS AFB     MOSUNNY   92  71  49 VRB3      29.97F HX  98


CITY           SKY/WX    TMP DP  RH WIND       PRES   REMARKS
LAGRANGE*      SUNNY     94  64  36 W5        29.99F HX  96
SYLVANIA*      MOSUNNY   91  73  54 SW3       29.99F HX  98
MILLEDGEVILLE* MOSUNNY   90  72  55 CALM      29.98F HX  96
$$

GAZ099>101-110>166-012000-
SOUTH GEORGIA

CITY           SKY/WX    TMP DP  RH WIND       PRES   REMARKS
SAVANNAH       LGT RAIN  86  74  67 W13       29.99F HX  94
VALDOSTA       PTSUNNY   84  76  76 CALM      30.01F HX  93
ALMA           LGT RAIN  75  73  93 W7        30.01S
ST SIMONS      CLOUDY    82  74  76 SW12      30.01S
FT STEWART     PTSUNNY   81  75  83 S6        29.97S THUNDER
ALBANY         MOSUNNY   87  71  58 SW7       30.01F HX  93
HUNTER AFB     MOSUNNY   90  77  65 SW7       29.96F HX 103
MOODY AFB      PTSUNNY   82  74  75 SW6       30.01F
BRUNSWICK      TSTM      79  77  94 SW15G24   30.04R


CITY           SKY/WX    TMP DP  RH WIND       PRES   REMARKS
BAINBRIDGE*    PTSUNNY   84  73  70 CALM      30.00F HX  91
MOULTRIE*      CLOUDY    73  72  94 CALM      30.04R VSB 3/4
VIDALIA*       MOSUNNY   90  72  55 CALM      29.98F HX  96
WAYCROSS*      MOSUNNY   82  77  86 SW3       30.01F HX  90
DOUGLAS*       LGT RAIN  77  73  88 S3        30.02F
$$




USA.gov is the U.S. government's official web portal to all federal, state and local government web resources and services.